Change the Weather History Date:

Tuesday, April 15, 2014

  Actual Average Record
Temperature  
Mean Temperature 46 °F -  
Max Temperature 64 °F 70 °F 91 °F (2006)
Min Temperature 28 °F 46 °F 28 °F (2014)
Degree Days  
Heating Degree Days 19    
Moisture  
Dew Point 19 °F    
Average Humidity 39    
Maximum Humidity 72    
Minimum Humidity 15    
Precipitation  
Precipitation 0.00 in - - ()
Sea Level Pressure  
Sea Level Pressure 30.16 in    
Wind  
Wind Speed 6 mph (SW)    
Max Wind Speed 13 mph    
Max Gust Speed 20 mph    
Visibility 10 miles    
Events      
Averages and records for this station are not official NWS values.
T = Trace of Precipitation, MM = Missing Value Source: NWS Daily Summary

Daily Weather History Graph

Daily Weather History Graph

Search for Another Location

Airport or City:

Trip Planner

Search our weather history database for the weather conditions in past years. The results will help you decide how hot, cold, wet, or windy it might be!

Date:

Astronomy

Apr. 15, 2014 Rise Set
Actual Time 6:55 AM CDT 8:02 PM CDT
Civil Twilight 6:28 AM CDT 8:28 PM CDT
Nautical Twilight 5:57 AM CDT 9:00 PM CDT
Astronomical Twilight 5:24 AM CDT 9:33 PM CDT
Moon 8:43 PM CDT (4/15) 7:04 AM CDT (4/15)
Length of Visible Light 14h 00m
Length of Day
13h 07m
Full, 100% of the Moon is Illuminated
Apr 15
Full
Apr 22
Last Quarter
Apr 29
New
May 6
First Quarter
May 14
Full

Hourly Weather History & Observations

Time (CDT) Temp. Windchill Dew Point Humidity Pressure Visibility Wind Dir Wind Speed Gust Speed Precip Events Conditions
12:53 AM 28.9 °F 25.2 °F 21.0 °F 72% 30.25 in 10.0 mi West 3.5 mph - N/A   Clear
1:53 AM 30.0 °F 25.2 °F 21.0 °F 69% 30.25 in 10.0 mi West 4.6 mph - N/A   Clear
2:53 AM 30.0 °F 25.2 °F 19.9 °F 66% 30.25 in 10.0 mi WSW 4.6 mph - N/A   Clear
3:53 AM 30.9 °F 25.2 °F 19.0 °F 61% 30.24 in 10.0 mi West 5.8 mph - N/A   Clear
4:53 AM 30.9 °F 24.3 °F 19.0 °F 61% 30.23 in 10.0 mi West 6.9 mph - N/A   Clear
5:53 AM 30.0 °F 23.2 °F 19.0 °F 64% 30.24 in 10.0 mi West 6.9 mph - N/A   Clear
6:53 AM 28.0 °F 22.8 °F 19.0 °F 69% 30.24 in 10.0 mi West 4.6 mph - N/A   Clear
7:53 AM 33.1 °F - 23.0 °F 66% 30.26 in 10.0 mi Calm Calm - N/A   Clear
8:53 AM 41.0 °F 39.0 °F 24.1 °F 51% 30.26 in 10.0 mi WNW 3.5 mph - N/A   Clear
9:53 AM 48.9 °F - 23.0 °F 36% 30.25 in 10.0 mi West 4.6 mph - N/A   Clear
10:53 AM 54.0 °F - 21.0 °F 28% 30.26 in 10.0 mi West 6.9 mph - N/A   Clear
11:53 AM 57.0 °F - 19.0 °F 23% 30.25 in 10.0 mi West 5.8 mph - N/A   Clear
12:53 PM 59.0 °F - 18.0 °F 20% 30.22 in 10.0 mi WSW 8.1 mph - N/A   Clear
1:53 PM 61.0 °F - 18.0 °F 19% 30.18 in 10.0 mi SW 8.1 mph 16.1 mph N/A   Clear
2:53 PM 64.0 °F - 18.0 °F 17% 30.14 in 10.0 mi SW 9.2 mph - N/A   Clear
3:53 PM 64.9 °F - 16.0 °F 15% 30.10 in 10.0 mi South 6.9 mph - N/A   Clear
4:53 PM 64.0 °F - 15.1 °F 15% 30.07 in 10.0 mi WSW 9.2 mph - N/A   Clear
5:53 PM 63.0 °F - 14.0 °F 15% 30.05 in 10.0 mi SW 10.4 mph 19.6 mph N/A   Clear
6:53 PM 62.1 °F - 15.1 °F 16% 30.04 in 10.0 mi SSW 9.2 mph - N/A   Clear
7:53 PM 55.9 °F - 16.0 °F 21% 30.02 in 10.0 mi South 9.2 mph - N/A   Clear
8:53 PM 54.0 °F - 19.9 °F 26% 30.03 in 10.0 mi SSE 10.4 mph - N/A   Clear
9:53 PM 53.1 °F - 21.0 °F 29% 30.04 in 10.0 mi South 10.4 mph - N/A   Clear
10:53 PM 51.1 °F - 23.0 °F 33% 30.02 in 10.0 mi South 12.7 mph - N/A   Clear
11:53 PM 51.1 °F - 23.0 °F 33% 30.00 in 10.0 mi South 11.5 mph - N/A   Clear